This is the latest recevied weather packets stored in our database for station/object F6BIJ-13. If no packets are shown the sender has not sent any weather packets the latest 10 day(s).
| Time | Temp. | Humidity | Pressure | Rain* | Wind** | Luminosity | Snow |
|---|---|---|---|---|---|---|---|
| 1777961196 | 11.67° C | 97% | 1011.1 hPa | 0 mm | - | - | - |
| 1777960837 | 11.67° C | 98% | 1011 hPa | 0 mm | - | - | - |
| 1777960477 | 12.22° C | 97% | 1010.8 hPa | 0 mm | - | - | - |
| 1777960117 | 12.22° C | 97% | 1011 hPa | 0 mm | - | - | - |
| 1777959757 | 11.11° C | 97% | 1010.9 hPa | 0 mm | - | - | - |
| 1777959397 | 11.67° C | 97% | 1010.9 hPa | 0 mm | - | - | - |
| 1777959037 | 11.67° C | 97% | 1010.9 hPa | 0 mm | - | - | - |
| 1777958677 | 11.67° C | 97% | 1010.9 hPa | 0 mm | - | - | - |
| 1777958317 | 11.11° C | 98% | 1010.7 hPa | 0 mm | - | - | - |
| 1777957957 | 10.56° C | 98% | 1010.8 hPa | 0 mm | - | - | - |
| 1777957597 | 11.67° C | 97% | 1010.9 hPa | 0 mm | - | - | - |
| 1777957237 | 11.67° C | 98% | 1011 hPa | 0 mm | - | - | - |
| 1777956517 | 11.11° C | 98% | 1011 hPa | 1.52 mm | - | - | - |
| 1777956157 | 11.67° C | 98% | 1011 hPa | 1.52 mm | - | - | - |
| 1777955797 | 11.67° C | 98% | 1011.1 hPa | 1.52 mm | - | - | - |
| 1777955437 | 11.11° C | 98% | 1011.3 hPa | 1.78 mm | - | - | - |
| 1777955077 | 11.67° C | 97% | 1011.3 hPa | 2.03 mm | - | - | - |
| 1777954717 | 11.11° C | 98% | 1011.5 hPa | 2.03 mm | - | - | - |
| 1777953997 | 11.67° C | 97% | 1011.6 hPa | 2.54 mm | - | - | - |
| 1777953637 | 11.67° C | 97% | 1011.8 hPa | 2.79 mm | - | - | - |
| 1777953277 | 12.22° C | 97% | 1012 hPa | 2.03 mm | - | - | - |
| 1777952918 | 11.11° C | 97% | 1012 hPa | 1.78 mm | - | - | - |
| 1777952557 | 11.67° C | 98% | 1012.1 hPa | 2.54 mm | - | - | - |
| 1777952197 | 11.11° C | 98% | 1012.2 hPa | 2.79 mm | - | - | - |
| 1777951837 | 11.67° C | 97% | 1012.2 hPa | 3.05 mm | - | - | - |
* Rain latest 24 hours (hover to see other rain measurements)
** Current wind speed in m/s (hover to see current wind gust speed)